Location: Unspecified
(54.1780°N, 0.0000°E)
Time: 17:14:05
(UTC+00:00)

Transit 2A - Pass Details

Date: 24 June 2019
Orbit: 594 x 965 km, 66.7° (Epoch: 17 July)

Event Time Altitude Azimuth Distance (km) Brightness Sun altitude
Rises 02:44:44 0° 265° (W) 3,648 9.1 -4.9°
Reaches altitude 10° 02:47:38 10° 275° (W) 2,688 8.5 -4.6°
Maximum altitude 02:53:14 32° 337° (NNW) 1,537 7.9 -4.1°
Drops below altitude 10° 02:58:33 10° 40° (NE) 2,546 10.8 -3.7°
Sets 03:01:15 0° 50° (NE) 3,430 11.7 -3.4°
